MQC45F FYWH-FZAA

Flight info

Callsign MQC45F
Flight time 2h 48m
Altitude 34000
Route WHV DCT OMATA UT943 OTAVI/N0467F360 UT943 UNLOK/N0466F350 UT943 IMVEX/N0464F360 UT943 ITNEL/N0462F370 DCT OGNIK OGNIK1B
Aircraft B738/M-SDE2E3FGHIRWXY/LB1

Departure

Time 2026-04-26 13:19
Airport Hosea Kutako International Airport (FYWH)

Arrival

Time 2026-04-26 16:07
Airport Ndjili International Airport (FZAA)
Time Latitude Longitude Altitude Speed Heading
2026-04-26 12:55 -22.48533 17.46464 5599 ft 0 kts 156°
2026-04-26 13:11 -22.48543 17.46465 5621 ft 4 kts 186°
2026-04-26 13:12 -22.48559 17.46436 5594 ft 5 kts 278°
2026-04-26 13:12 -22.48522 17.46422 5593 ft 8 kts
2026-04-26 13:12 -22.48443 17.46432 5605 ft 14 kts 12°
2026-04-26 13:12 -22.48375 17.46524 5601 ft 18 kts 63°
2026-04-26 13:13 -22.48317 17.46648 5596 ft 19 kts 63°
2026-04-26 13:13 -22.48257 17.46783 5586 ft 20 kts 64°
2026-04-26 13:13 -22.48195 17.46918 5582 ft 20 kts 63°
2026-04-26 13:13 -22.48135 17.47049 5580 ft 19 kts 63°
2026-04-26 13:14 -22.48075 17.47174 5581 ft 18 kts 63°
2026-04-26 13:14 -22.48018 17.47295 5577 ft 18 kts 63°
2026-04-26 13:14 -22.47963 17.47412 5572 ft 17 kts 63°
2026-04-26 13:14 -22.47908 17.47525 5569 ft 17 kts 62°
2026-04-26 13:15 -22.47862 17.47636 5564 ft 16 kts 67°
2026-04-26 13:15 -22.47822 17.47746 5559 ft 15 kts 70°
2026-04-26 13:15 -22.47777 17.47847 5556 ft 15 kts 61°
2026-04-26 13:15 -22.47707 17.47918 5553 ft 14 kts
2026-04-26 13:16 -22.47614 17.47913 5553 ft 13 kts 25°
2026-04-26 13:16 -22.47565 17.48006 5553 ft 17 kts 65°
2026-04-26 13:16 -22.47506 17.48136 5546 ft 22 kts 62°
2026-04-26 13:16 -22.47430 17.48296 5537 ft 26 kts 63°
2026-04-26 13:17 -22.47265 17.48665 5520 ft 24 kts 64°
2026-04-26 13:17 -22.47219 17.48808 5513 ft 13 kts 106°
2026-04-26 13:18 -22.47222 17.48956 5508 ft 12 kts
2026-04-26 13:18 -22.47152 17.48914 5508 ft 12 kts 296°
2026-04-26 13:18 -22.47320 17.48524 5530 ft 79 kts 243°
2026-04-26 13:19 -22.47659 17.47795 5558 ft 137 kts 243°
2026-04-26 13:19 -22.48158 17.46708 5614 ft 184 kts 244°
2026-04-26 13:19 -22.48751 17.45411 6191 ft 196 kts 244°
2026-04-26 13:19 -22.49402 17.44043 6742 ft 213 kts 245°
2026-04-26 13:20 -22.50121 17.42549 6951 ft 237 kts 246°
2026-04-26 13:20 -22.50852 17.40929 7598 ft 238 kts 247°
2026-04-26 13:20 -22.51584 17.39278 8023 ft 247 kts 247°
2026-04-26 13:20 -22.52351 17.37589 8498 ft 251 kts 246°
2026-04-26 13:21 -22.53125 17.35914 9218 ft 247 kts 245°
2026-04-26 13:21 -22.53656 17.34820 9604 ft 251 kts 239°
2026-04-26 13:21 -22.55561 17.33149 9900 ft 286 kts 201°
2026-04-26 13:21 -22.57588 17.32883 10235 ft 304 kts 174°
2026-04-26 13:22 -22.59593 17.33640 10826 ft 308 kts 150°
2026-04-26 13:22 -22.61286 17.35079 11426 ft 314 kts 136°
2026-04-26 13:22 -22.62799 17.36804 12016 ft 317 kts 133°
2026-04-26 13:22 -22.64240 17.38592 12744 ft 316 kts 130°
2026-04-26 13:23 -22.65667 17.40431 13285 ft 321 kts 131°
2026-04-26 13:23 -22.67026 17.42384 13685 ft 335 kts 117°
2026-04-26 13:23 -22.67603 17.44876 13821 ft 353 kts 88°
2026-04-26 13:23 -22.67063 17.47497 13976 ft 367 kts 62°
2026-04-26 13:24 -22.65512 17.49736 14165 ft 379 kts 41°
2026-04-26 13:24 -22.63375 17.51423 14521 ft 384 kts 25°
2026-04-26 13:24 -22.60879 17.52438 14999 ft 384 kts
2026-04-26 13:24 -22.58221 17.52574 15535 ft 383 kts 353°
2026-04-26 13:25 -22.55569 17.52235 16063 ft 385 kts 349°
2026-04-26 13:25 -22.52913 17.51761 16538 ft 389 kts 348°
2026-04-26 13:25 -22.50233 17.51260 16986 ft 393 kts 348°
2026-04-26 13:25 -22.47527 17.50774 17453 ft 396 kts 349°
2026-04-26 13:26 -22.44790 17.50310 17901 ft 400 kts 349°
2026-04-26 13:26 -22.42023 17.49866 18327 ft 404 kts 349°
2026-04-26 13:26 -22.39231 17.49435 18755 ft 407 kts 350°
2026-04-26 13:26 -22.36418 17.49011 19093 ft 410 kts 350°
2026-04-26 13:27 -22.33575 17.48587 19420 ft 414 kts 350°
2026-04-26 13:27 -22.30715 17.48163 19763 ft 417 kts 349°
2026-04-26 13:27 -22.27831 17.47736 20108 ft 420 kts 349°
2026-04-26 13:27 -22.24923 17.47305 20439 ft 423 kts 349°
2026-04-26 13:28 -22.21996 17.46871 20778 ft 426 kts 349°
2026-04-26 13:28 -22.19048 17.46435 21117 ft 429 kts 349°
2026-04-26 13:28 -22.16082 17.45995 21438 ft 432 kts 349°
2026-04-26 13:28 -22.13091 17.45550 21745 ft 436 kts 348°
2026-04-26 13:29 -22.10077 17.45103 22062 ft 439 kts 348°
2026-04-26 13:29 -22.08026 17.44798 22280 ft 441 kts 348°
2026-04-26 13:29 -22.03985 17.44199 22765 ft 444 kts 348°
2026-04-26 13:29 -22.00909 17.43743 23081 ft 448 kts 348°
2026-04-26 13:30 -21.97812 17.43284 23402 ft 451 kts 348°
2026-04-26 13:30 -21.94687 17.42821 23698 ft 454 kts 348°
2026-04-26 13:30 -21.91550 17.42356 23994 ft 455 kts 348°
2026-04-26 13:30 -21.88372 17.41887 24342 ft 455 kts 348°
2026-04-26 13:31 -21.85233 17.41423 24681 ft 455 kts 348°
2026-04-26 13:31 -21.82139 17.40967 24982 ft 456 kts 348°
2026-04-26 13:31 -21.78950 17.40495 25273 ft 457 kts 348°
2026-04-26 13:31 -21.75839 17.40035 25555 ft 458 kts 348°
2026-04-26 13:32 -21.72680 17.39568 25836 ft 459 kts 348°
2026-04-26 13:32 -21.69514 17.39101 26118 ft 459 kts 348°
2026-04-26 13:32 -21.66350 17.38634 26392 ft 460 kts 348°
2026-04-26 13:32 -21.63177 17.38166 26648 ft 461 kts 348°
2026-04-26 13:33 -21.59997 17.37697 26907 ft 462 kts 348°
2026-04-26 13:33 -21.56814 17.37228 27167 ft 462 kts 348°
2026-04-26 13:33 -21.53624 17.36758 27414 ft 463 kts 348°
2026-04-26 13:33 -21.50429 17.36287 27650 ft 464 kts 348°
2026-04-26 13:34 -21.47226 17.35816 27883 ft 465 kts 348°
2026-04-26 13:34 -21.44020 17.35344 28115 ft 465 kts 348°
2026-04-26 13:34 -21.40809 17.34872 28332 ft 466 kts 348°
2026-04-26 13:34 -21.38637 17.34552 28474 ft 467 kts 348°
2026-04-26 13:35 -21.34368 17.33925 28752 ft 468 kts 348°
2026-04-26 13:35 -21.31138 17.33451 28959 ft 469 kts 348°
2026-04-26 13:35 -21.27906 17.32976 29187 ft 469 kts 348°
2026-04-26 13:35 -21.24681 17.32504 29511 ft 467 kts 349°
2026-04-26 13:36 -21.21478 17.32035 29888 ft 463 kts 348°
2026-04-26 13:36 -21.18287 17.31569 30222 ft 461 kts 349°
2026-04-26 13:36 -21.15114 17.31105 30453 ft 460 kts 349°
2026-04-26 13:36 -21.11939 17.30639 30627 ft 461 kts 349°
2026-04-26 13:37 -21.08760 17.30172 30832 ft 461 kts 349°
2026-04-26 13:37 -21.05584 17.29707 31079 ft 460 kts 349°
2026-04-26 13:37 -21.02418 17.29244 31354 ft 458 kts 349°
2026-04-26 13:37 -20.99262 17.28783 31602 ft 458 kts 349°
2026-04-26 13:38 -20.96108 17.28321 31833 ft 457 kts 349°
2026-04-26 13:38 -20.92960 17.27861 32074 ft 457 kts 349°
2026-04-26 13:38 -20.89816 17.27401 32328 ft 456 kts 349°
2026-04-26 13:38 -20.86675 17.26942 32565 ft 455 kts 349°
2026-04-26 13:39 -20.83535 17.26484 32796 ft 455 kts 349°
2026-04-26 13:39 -20.80400 17.26031 33042 ft 455 kts 349°
2026-04-26 13:39 -20.77254 17.25616 33278 ft 455 kts 350°
2026-04-26 13:39 -20.74114 17.25229 33516 ft 454 kts 351°
2026-04-26 13:40 -20.70973 17.24853 33768 ft 454 kts 351°
2026-04-26 13:40 -20.67838 17.24478 34001 ft 453 kts 351°
2026-04-26 13:40 -20.64696 17.24098 33987 ft 456 kts 351°
2026-04-26 13:41 -20.58397 17.23326 33998 ft 454 kts 351°
2026-04-26 13:41 -20.52137 17.22553 34005 ft 451 kts 351°
2026-04-26 13:42 -20.45914 17.21782 34005 ft 449 kts 351°
2026-04-26 13:42 -20.39712 17.21015 34012 ft 448 kts 351°
2026-04-26 13:43 -20.33511 17.20248 34002 ft 449 kts 351°
2026-04-26 13:43 -20.27308 17.19482 34007 ft 449 kts 351°
2026-04-26 13:44 -20.21085 17.18714 34000 ft 451 kts 351°
2026-04-26 13:44 -20.15899 17.18075 34000 ft 452 kts 351°
2026-04-26 13:45 -20.09634 17.17303 34001 ft 454 kts 351°
2026-04-26 13:45 -20.03353 17.16531 33998 ft 455 kts 351°
2026-04-26 13:46 -19.97045 17.15756 33996 ft 457 kts 351°
2026-04-26 13:46 -19.90727 17.14980 33993 ft 457 kts 351°
2026-04-26 13:47 -19.84406 17.14204 33990 ft 457 kts 352°
2026-04-26 13:47 -19.78085 17.13429 33991 ft 457 kts 352°
2026-04-26 13:48 -19.71779 17.12657 33991 ft 456 kts 352°
2026-04-26 13:48 -19.65482 17.11887 33988 ft 455 kts 352°
2026-04-26 13:49 -19.59198 17.11118 33987 ft 454 kts 352°
2026-04-26 13:49 -19.52924 17.10351 33986 ft 454 kts 352°
2026-04-26 13:50 -19.46654 17.09585 33981 ft 453 kts 352°
2026-04-26 13:50 -19.40391 17.08821 33984 ft 453 kts 352°
2026-04-26 13:51 -19.34133 17.08058 33980 ft 453 kts 352°
2026-04-26 13:51 -19.27876 17.07295 33989 ft 453 kts 352°
2026-04-26 13:52 -19.21612 17.06532 33976 ft 453 kts 352°
2026-04-26 13:52 -19.15348 17.05770 33971 ft 453 kts 353°
2026-04-26 13:53 -19.09074 17.05025 33968 ft 454 kts 353°
2026-04-26 13:53 -19.02796 17.04288 33973 ft 454 kts 353°
2026-04-26 13:54 -18.96507 17.03550 33968 ft 455 kts 353°
2026-04-26 13:54 -18.90215 17.02811 33962 ft 455 kts 353°
2026-04-26 13:55 -18.81785 17.01819 33969 ft 456 kts 353°
2026-04-26 13:56 -18.71294 17.00587 33967 ft 456 kts 353°
2026-04-26 13:56 -18.64976 16.99846 33961 ft 457 kts 353°
2026-04-26 13:57 -18.58661 16.99106 33963 ft 457 kts 353°
2026-04-26 13:57 -18.52343 16.98365 33967 ft 457 kts 353°
2026-04-26 13:58 -18.46027 16.97626 33960 ft 457 kts 353°
2026-04-26 13:58 -18.39708 16.96887 33965 ft 457 kts 353°
2026-04-26 13:59 -18.33397 16.96149 33962 ft 457 kts 354°
2026-04-26 13:59 -18.27078 16.95411 33963 ft 456 kts 354°
2026-04-26 14:00 -18.14456 16.93938 33959 ft 456 kts 354°
2026-04-26 14:01 -18.08149 16.93203 33961 ft 456 kts 354°
2026-04-26 14:01 -18.01847 16.92469 33959 ft 456 kts 354°
2026-04-26 14:02 -17.95545 16.91736 33963 ft 455 kts 354°
2026-04-26 14:02 -17.89249 16.91003 33959 ft 455 kts 354°
2026-04-26 14:03 -17.82957 16.90272 33956 ft 455 kts 354°
2026-04-26 14:03 -17.76659 16.89541 33952 ft 455 kts 354°
2026-04-26 14:04 -17.70362 16.88810 33951 ft 455 kts 354°
2026-04-26 14:04 -17.64063 16.88079 33954 ft 455 kts 354°
2026-04-26 14:05 -17.57767 16.87350 33954 ft 455 kts 354°
2026-04-26 14:05 -17.51467 16.86620 33955 ft 456 kts 354°
2026-04-26 14:06 -17.45204 16.85895 33943 ft 456 kts 354°
2026-04-26 14:06 -17.38899 16.85166 33949 ft 456 kts 354°
2026-04-26 14:07 -17.32594 16.84434 33950 ft 456 kts 354°
2026-04-26 14:07 -17.26287 16.83700 33943 ft 456 kts 354°
2026-04-26 14:08 -17.19985 16.82968 33945 ft 456 kts 354°
2026-04-26 14:08 -17.13683 16.82236 33946 ft 456 kts 354°
2026-04-26 14:09 -17.07379 16.81505 33947 ft 456 kts 354°
2026-04-26 14:09 -17.01070 16.80773 33941 ft 456 kts 354°
2026-04-26 14:10 -16.94768 16.80043 33939 ft 456 kts 354°
2026-04-26 14:10 -16.88461 16.79313 33940 ft 456 kts 354°
2026-04-26 14:11 -16.79003 16.78219 33939 ft 456 kts 354°
2026-04-26 14:11 -16.72703 16.77491 33937 ft 456 kts 354°
2026-04-26 14:12 -16.66355 16.76758 33940 ft 456 kts 354°
2026-04-26 14:12 -16.60096 16.76035 33941 ft 456 kts 354°
2026-04-26 14:13 -16.50602 16.74940 33941 ft 456 kts 354°
2026-04-26 14:14 -16.44302 16.74214 33937 ft 456 kts 354°
2026-04-26 14:14 -16.38001 16.73488 33942 ft 456 kts 354°
2026-04-26 14:15 -16.31698 16.72763 33944 ft 456 kts 354°
2026-04-26 14:15 -16.25395 16.72038 33947 ft 456 kts 354°
2026-04-26 14:16 -16.19090 16.71313 33946 ft 456 kts 354°
2026-04-26 14:16 -16.12787 16.70589 33946 ft 456 kts 354°
2026-04-26 14:17 -16.06484 16.69866 33944 ft 456 kts 354°
2026-04-26 14:17 -16.00179 16.69142 33952 ft 456 kts 354°
2026-04-26 14:18 -15.93871 16.68419 33946 ft 456 kts 354°
2026-04-26 14:18 -15.87562 16.67696 33951 ft 456 kts 354°
2026-04-26 14:19 -15.81255 16.66974 33948 ft 456 kts 354°
2026-04-26 14:19 -15.74937 16.66251 33950 ft 456 kts 354°
2026-04-26 14:20 -15.68628 16.65529 33949 ft 457 kts 354°
2026-04-26 14:20 -15.62311 16.64808 33954 ft 457 kts 354°
2026-04-26 14:21 -15.55997 16.64086 33951 ft 457 kts 354°
2026-04-26 14:21 -15.49681 16.63365 33956 ft 456 kts 354°
2026-04-26 14:22 -15.43369 16.62645 33954 ft 457 kts 354°
2026-04-26 14:22 -15.37052 16.61925 33952 ft 457 kts 354°
2026-04-26 14:23 -15.30735 16.61205 33951 ft 457 kts 354°
2026-04-26 14:23 -15.24423 16.60486 33960 ft 456 kts 355°
2026-04-26 14:24 -15.18106 16.59767 33954 ft 456 kts 355°
2026-04-26 14:24 -15.12862 16.59175 33952 ft 456 kts 355°
2026-04-26 14:25 -15.06546 16.58465 33952 ft 456 kts 355°
2026-04-26 14:25 -15.00240 16.57756 33958 ft 456 kts 355°
2026-04-26 14:26 -14.93928 16.57046 33955 ft 456 kts 355°
2026-04-26 14:26 -14.87626 16.56338 33958 ft 456 kts 355°
2026-04-26 14:27 -14.81318 16.55629 33954 ft 456 kts 355°
2026-04-26 14:27 -14.75013 16.54922 33959 ft 456 kts 355°
2026-04-26 14:28 -14.68700 16.54213 33960 ft 457 kts 355°
2026-04-26 14:28 -14.62382 16.53504 33956 ft 457 kts 355°
2026-04-26 14:29 -14.56067 16.52796 33966 ft 457 kts 355°
2026-04-26 14:29 -14.49737 16.52088 33961 ft 457 kts 355°
2026-04-26 14:30 -14.43414 16.51380 33963 ft 457 kts 355°
2026-04-26 14:30 -14.37084 16.50672 33969 ft 458 kts 355°
2026-04-26 14:31 -14.30751 16.49963 33965 ft 458 kts 355°
2026-04-26 14:31 -14.24417 16.49255 33967 ft 458 kts 355°
2026-04-26 14:32 -14.18078 16.48547 33967 ft 458 kts 355°
2026-04-26 14:32 -14.11740 16.47839 33974 ft 458 kts 355°
2026-04-26 14:33 -14.05393 16.47131 33968 ft 459 kts 355°
2026-04-26 14:33 -13.99045 16.46423 33968 ft 459 kts 355°
2026-04-26 14:34 -13.92695 16.45715 33971 ft 459 kts 355°
2026-04-26 14:34 -13.86345 16.45008 33969 ft 459 kts 355°
2026-04-26 14:35 -13.79992 16.44300 33971 ft 459 kts 355°
2026-04-26 14:35 -13.73641 16.43594 33976 ft 459 kts 355°
2026-04-26 14:36 -13.67294 16.42895 33971 ft 459 kts 355°
2026-04-26 14:36 -13.60947 16.42197 33975 ft 458 kts 355°
2026-04-26 14:37 -13.54608 16.41500 33973 ft 458 kts 355°
2026-04-26 14:37 -13.48274 16.40803 33978 ft 458 kts 355°
2026-04-26 14:38 -13.41937 16.40106 33978 ft 458 kts 355°
2026-04-26 14:38 -13.35605 16.39410 33977 ft 457 kts 355°
2026-04-26 14:39 -13.29276 16.38715 33978 ft 457 kts 355°
2026-04-26 14:39 -13.22946 16.38020 33976 ft 457 kts 356°
2026-04-26 14:40 -13.16621 16.37325 33982 ft 457 kts 356°
2026-04-26 14:40 -13.10291 16.36631 33981 ft 457 kts 356°
2026-04-26 14:41 -13.03968 16.35938 33977 ft 457 kts 356°
2026-04-26 14:41 -12.97643 16.35245 33983 ft 457 kts 356°
2026-04-26 14:42 -12.91323 16.34553 33985 ft 457 kts 356°
2026-04-26 14:42 -12.85006 16.33861 33992 ft 457 kts 356°
2026-04-26 14:43 -12.78730 16.33174 33985 ft 456 kts 356°
2026-04-26 14:43 -12.72414 16.32484 33983 ft 456 kts 356°
2026-04-26 14:44 -12.66065 16.31790 33988 ft 456 kts 356°
2026-04-26 14:44 -12.59761 16.31101 33988 ft 455 kts 356°
2026-04-26 14:45 -12.53502 16.30418 33986 ft 455 kts 356°
2026-04-26 14:45 -12.47208 16.29731 33978 ft 455 kts 356°
2026-04-26 14:46 -12.40915 16.29044 33982 ft 455 kts 356°
2026-04-26 14:46 -12.34625 16.28358 33980 ft 455 kts 356°
2026-04-26 14:47 -12.28330 16.27672 33978 ft 455 kts 356°
2026-04-26 14:47 -12.21992 16.26984 33976 ft 455 kts 356°
2026-04-26 14:48 -12.15737 16.26320 33970 ft 455 kts 356°
2026-04-26 14:48 -12.09436 16.25654 33970 ft 455 kts 356°
2026-04-26 14:49 -12.03134 16.24987 33969 ft 455 kts 356°
2026-04-26 14:49 -11.96835 16.24320 33968 ft 455 kts 356°
2026-04-26 14:50 -11.90535 16.23653 33965 ft 455 kts 357°
2026-04-26 14:50 -11.84232 16.22985 33962 ft 455 kts 357°
2026-04-26 14:51 -11.77932 16.22318 33965 ft 455 kts 357°
2026-04-26 14:51 -11.71636 16.21652 33970 ft 455 kts 357°
2026-04-26 14:52 -11.65338 16.20986 33969 ft 455 kts 357°
2026-04-26 14:52 -11.59037 16.20321 33967 ft 455 kts 357°
2026-04-26 14:53 -11.52739 16.19655 33964 ft 455 kts 357°
2026-04-26 14:53 -11.46440 16.18990 33972 ft 455 kts 357°
2026-04-26 14:54 -11.40140 16.18325 33978 ft 455 kts 357°
2026-04-26 14:54 -11.33836 16.17660 33968 ft 455 kts 357°
2026-04-26 14:55 -11.27531 16.16995 33980 ft 455 kts 357°
2026-04-26 14:55 -11.21228 16.16330 33971 ft 455 kts 357°
2026-04-26 14:56 -11.14924 16.15666 33966 ft 455 kts 357°
2026-04-26 14:56 -11.08619 16.15002 33971 ft 455 kts 357°
2026-04-26 14:57 -11.02315 16.14338 33973 ft 455 kts 357°
2026-04-26 14:57 -10.96008 16.13675 33974 ft 456 kts 357°
2026-04-26 14:58 -10.89696 16.13003 33964 ft 456 kts 357°
2026-04-26 14:58 -10.83387 16.12251 33964 ft 457 kts 356°
2026-04-26 14:59 -10.77072 16.11471 33964 ft 457 kts 356°
2026-04-26 14:59 -10.70765 16.10702 33956 ft 457 kts 356°
2026-04-26 15:00 -10.64450 16.09940 33962 ft 457 kts 356°
2026-04-26 15:00 -10.58134 16.09181 33964 ft 457 kts 356°
2026-04-26 15:01 -10.51820 16.08422 33955 ft 457 kts 356°
2026-04-26 15:01 -10.45508 16.07662 33948 ft 457 kts 356°
2026-04-26 15:02 -10.39199 16.06903 33953 ft 456 kts 356°
2026-04-26 15:02 -10.32887 16.06145 33951 ft 456 kts 356°
2026-04-26 15:03 -10.26584 16.05388 33955 ft 456 kts 356°
2026-04-26 15:03 -10.20282 16.04631 33942 ft 456 kts 356°
2026-04-26 15:04 -10.13980 16.03874 33941 ft 456 kts 356°
2026-04-26 15:04 -10.07678 16.03122 33941 ft 456 kts 356°
2026-04-26 15:05 -10.01386 16.02428 33935 ft 455 kts 357°
2026-04-26 15:05 -9.95074 16.01752 33936 ft 455 kts 357°
2026-04-26 15:06 -9.88771 16.01071 33940 ft 455 kts 357°
2026-04-26 15:06 -9.83533 16.00500 33937 ft 456 kts 357°
2026-04-26 15:07 -9.74069 15.99466 33934 ft 456 kts 357°
2026-04-26 15:07 -9.67752 15.98777 33934 ft 457 kts 357°
2026-04-26 15:08 -9.61423 15.98087 33937 ft 457 kts 357°
2026-04-26 15:08 -9.55091 15.97398 33935 ft 458 kts 356°
2026-04-26 15:09 -9.48754 15.96707 33935 ft 458 kts 356°
2026-04-26 15:09 -9.42411 15.96016 33934 ft 459 kts 356°
2026-04-26 15:10 -9.37090 15.95435 33936 ft 459 kts 356°
2026-04-26 15:10 -9.29707 15.94628 33935 ft 459 kts 356°
2026-04-26 15:11 -9.23355 15.93934 33932 ft 459 kts 356°
2026-04-26 15:11 -9.16998 15.93239 33938 ft 460 kts 356°
2026-04-26 15:12 -9.10633 15.92544 33940 ft 460 kts 356°
2026-04-26 15:12 -9.04274 15.91850 33941 ft 460 kts 356°
2026-04-26 15:13 -8.97913 15.91156 33938 ft 460 kts 356°
2026-04-26 15:13 -8.91544 15.90461 33946 ft 460 kts 357°
2026-04-26 15:14 -8.85180 15.89767 33945 ft 460 kts 357°
2026-04-26 15:14 -8.78816 15.89073 33950 ft 460 kts 357°
2026-04-26 15:15 -8.72443 15.88381 33942 ft 460 kts 357°
2026-04-26 15:15 -8.66073 15.87689 33948 ft 460 kts 357°
2026-04-26 15:16 -8.59704 15.86998 33949 ft 460 kts 357°
2026-04-26 15:16 -8.53335 15.86306 33948 ft 460 kts 357°
2026-04-26 15:17 -8.48037 15.85731 33948 ft 461 kts 357°
2026-04-26 15:17 -8.40589 15.84922 33944 ft 461 kts 357°
2026-04-26 15:18 -8.34218 15.84231 33951 ft 460 kts 357°
2026-04-26 15:18 -8.27850 15.83536 33950 ft 460 kts 357°
2026-04-26 15:19 -8.21484 15.82841 33951 ft 460 kts 357°
2026-04-26 15:19 -8.15119 15.82147 33947 ft 460 kts 357°
2026-04-26 15:20 -8.08754 15.81453 33952 ft 460 kts 357°
2026-04-26 15:20 -8.02389 15.80761 33946 ft 460 kts 357°
2026-04-26 15:21 -7.96024 15.80077 33948 ft 460 kts 357°
2026-04-26 15:21 -7.89665 15.79395 33945 ft 460 kts 357°
2026-04-26 15:22 -7.83302 15.78712 33949 ft 460 kts 357°
2026-04-26 15:22 -7.76937 15.78028 33954 ft 460 kts 357°
2026-04-26 15:23 -7.70573 15.77345 33941 ft 460 kts 357°
2026-04-26 15:23 -7.64207 15.76661 33943 ft 460 kts 357°
2026-04-26 15:24 -7.57838 15.75974 33949 ft 460 kts 357°
2026-04-26 15:24 -7.51468 15.75286 33943 ft 460 kts 357°
2026-04-26 15:25 -7.46180 15.74714 33944 ft 460 kts 357°
2026-04-26 15:25 -7.38735 15.73909 33946 ft 460 kts 357°
2026-04-26 15:26 -7.32362 15.73221 33947 ft 460 kts 357°
2026-04-26 15:26 -7.25987 15.72533 33940 ft 461 kts 356°
2026-04-26 15:27 -7.19618 15.71846 33947 ft 460 kts 356°
2026-04-26 15:27 -7.13243 15.71159 33942 ft 460 kts 356°
2026-04-26 15:28 -7.06873 15.70472 33939 ft 460 kts 356°
2026-04-26 15:28 -7.00503 15.69785 33940 ft 460 kts 356°
2026-04-26 15:29 -6.94133 15.69098 33936 ft 460 kts 356°
2026-04-26 15:30 -6.81404 15.67726 33936 ft 460 kts 356°
2026-04-26 15:30 -6.75046 15.67042 33935 ft 459 kts 355°
2026-04-26 15:31 -6.65519 15.66016 33935 ft 459 kts 355°
2026-04-26 15:32 -6.57082 15.65108 33935 ft 458 kts 355°
2026-04-26 15:32 -6.49686 15.64312 33932 ft 457 kts 355°
2026-04-26 15:33 -6.43371 15.63633 33932 ft 456 kts 355°
2026-04-26 15:33 -6.37065 15.62955 33927 ft 455 kts 355°
2026-04-26 15:34 -6.30770 15.62278 33930 ft 455 kts 355°
2026-04-26 15:34 -6.24480 15.61602 33930 ft 454 kts 355°
2026-04-26 15:35 -6.18196 15.60926 33927 ft 454 kts 355°
2026-04-26 15:35 -6.11927 15.60253 33931 ft 453 kts 355°
2026-04-26 15:36 -6.05655 15.59579 33930 ft 453 kts 355°
2026-04-26 15:36 -5.99379 15.58905 33928 ft 453 kts 355°
2026-04-26 15:37 -5.93105 15.58231 33932 ft 454 kts 355°
2026-04-26 15:37 -5.90000 15.57904 33905 ft 441 kts 358°
2026-04-26 15:37 -5.87041 15.58220 33929 ft 420 kts 19°
2026-04-26 15:38 -5.84420 15.59355 33905 ft 402 kts 30°
2026-04-26 15:38 -5.82127 15.60843 33915 ft 384 kts 39°
2026-04-26 15:38 -5.80291 15.62696 33920 ft 366 kts 54°
2026-04-26 15:38 -5.78942 15.64805 33924 ft 355 kts 60°
2026-04-26 15:39 -5.76535 15.69187 33944 ft 362 kts 60°
2026-04-26 15:39 -5.74841 15.72091 33787 ft 365 kts 59°
2026-04-26 15:40 -5.72665 15.75727 33039 ft 361 kts 59°
2026-04-26 15:40 -5.71377 15.77886 32495 ft 361 kts 59°
2026-04-26 15:40 -5.70068 15.80093 31366 ft 378 kts 60°
2026-04-26 15:40 -5.68685 15.82435 29978 ft 402 kts 60°
2026-04-26 15:41 -5.67229 15.84911 28523 ft 420 kts 60°
2026-04-26 15:41 -5.65731 15.87460 27520 ft 425 kts 60°
2026-04-26 15:41 -5.64254 15.89971 26891 ft 421 kts 60°
2026-04-26 15:41 -5.62780 15.92480 26363 ft 414 kts 60°
2026-04-26 15:42 -5.61326 15.94954 25781 ft 409 kts 60°
2026-04-26 15:42 -5.59888 15.97401 25162 ft 406 kts 60°
2026-04-26 15:42 -5.58458 15.99834 24553 ft 403 kts 60°
2026-04-26 15:42 -5.56781 16.02072 23943 ft 402 kts 43°
2026-04-26 15:43 -5.54487 16.03658 23354 ft 401 kts 26°
2026-04-26 15:43 -5.51835 16.04487 22720 ft 400 kts
2026-04-26 15:43 -5.46399 16.03752 21471 ft 400 kts 336°
2026-04-26 15:44 -5.43983 16.02384 20864 ft 398 kts 329°
2026-04-26 15:44 -5.39388 15.99355 19687 ft 392 kts 328°
2026-04-26 15:44 -5.37089 15.97901 19131 ft 389 kts 330°
2026-04-26 15:45 -5.32479 15.95150 18028 ft 383 kts 331°
2026-04-26 15:45 -5.30198 15.93796 17451 ft 379 kts 331°
2026-04-26 15:46 -5.25719 15.91110 16389 ft 371 kts 330°
2026-04-26 15:46 -5.23517 15.89779 15876 ft 368 kts 330°
2026-04-26 15:46 -5.21341 15.88459 15334 ft 365 kts 330°
2026-04-26 15:46 -5.20609 15.88014 15153 ft 364 kts 330°
2026-04-26 15:47 -5.17034 15.85841 14366 ft 359 kts 330°
2026-04-26 15:47 -5.12805 15.83269 13327 ft 352 kts 330°
2026-04-26 15:47 -5.10718 15.81999 12861 ft 349 kts 330°
2026-04-26 15:48 -5.09344 15.81164 12545 ft 348 kts 330°
2026-04-26 15:48 -5.07282 15.79910 12060 ft 345 kts 330°
2026-04-26 15:48 -5.05238 15.78667 11577 ft 342 kts 330°
2026-04-26 15:48 -5.03223 15.77441 11047 ft 336 kts 331°
2026-04-26 15:49 -5.01242 15.76236 10632 ft 329 kts 331°
2026-04-26 15:49 -4.99331 15.75073 10454 ft 315 kts 331°
2026-04-26 15:49 -4.97495 15.73958 10310 ft 303 kts 331°
2026-04-26 15:49 -4.95725 15.72882 10174 ft 293 kts 332°
2026-04-26 15:50 -4.94014 15.71844 10044 ft 282 kts 332°
2026-04-26 15:50 -4.92359 15.70839 9919 ft 275 kts 332°
2026-04-26 15:50 -4.90722 15.69846 9616 ft 274 kts 332°
2026-04-26 15:50 -4.89104 15.68863 9314 ft 270 kts 332°
2026-04-26 15:51 -4.87514 15.67897 9046 ft 265 kts 332°
2026-04-26 15:51 -4.85944 15.66943 8788 ft 263 kts 332°
2026-04-26 15:51 -4.84409 15.66011 8544 ft 267 kts 332°
2026-04-26 15:51 -4.82755 15.65009 8278 ft 277 kts 331°
2026-04-26 15:52 -4.81091 15.63999 7992 ft 279 kts 331°
2026-04-26 15:52 -4.79453 15.63001 7688 ft 273 kts 331°
2026-04-26 15:52 -4.77845 15.62022 7403 ft 267 kts 331°
2026-04-26 15:52 -4.76779 15.61374 7221 ft 263 kts 331°
2026-04-26 15:53 -4.74731 15.60129 6872 ft 257 kts 331°
2026-04-26 15:53 -4.73198 15.59199 6612 ft 259 kts 331°
2026-04-26 15:53 -4.71649 15.58259 6347 ft 263 kts 331°
2026-04-26 15:53 -4.70058 15.57293 6068 ft 271 kts 330°
2026-04-26 15:54 -4.68441 15.56310 5769 ft 271 kts 331°
2026-04-26 15:54 -4.66847 15.55340 5471 ft 265 kts 331°
2026-04-26 15:54 -4.65287 15.54393 5218 ft 259 kts 331°
2026-04-26 15:54 -4.63754 15.53462 5168 ft 257 kts 331°
2026-04-26 15:55 -4.62221 15.52532 5120 ft 255 kts 331°
2026-04-26 15:55 -4.60649 15.51963 5090 ft 228 kts 359°
2026-04-26 15:55 -4.59114 15.52048 5086 ft 217 kts 16°
2026-04-26 15:55 -4.57675 15.52495 5118 ft 221 kts 21°
2026-04-26 15:56 -4.56197 15.52991 5125 ft 227 kts 19°
2026-04-26 15:56 -4.54679 15.53441 5108 ft 225 kts 18°
2026-04-26 15:56 -4.53208 15.53931 4879 ft 222 kts 30°
2026-04-26 15:56 -4.52084 15.54951 4510 ft 221 kts 62°
2026-04-26 15:57 -4.51556 15.56403 4165 ft 222 kts 69°
2026-04-26 15:57 -4.50814 15.57751 3873 ft 220 kts 57°
2026-04-26 15:57 -4.49990 15.59022 3536 ft 217 kts 58°
2026-04-26 15:57 -4.49474 15.59882 3263 ft 219 kts 59°
2026-04-26 15:58 -4.48456 15.61658 2884 ft 216 kts 57°
2026-04-26 15:58 -4.47721 15.62932 2903 ft 211 kts 58°
2026-04-26 15:58 -4.46952 15.64282 3260 ft 232 kts 56°
2026-04-26 15:58 -4.45878 15.65520 3473 ft 239 kts 40°
2026-04-26 15:59 -4.44623 15.66572 3502 ft 232 kts 39°
2026-04-26 15:59 -4.43383 15.67569 3473 ft 224 kts 38°
2026-04-26 15:59 -4.42181 15.68529 3494 ft 218 kts 38°
2026-04-26 15:59 -4.41011 15.69463 3489 ft 213 kts 38°
2026-04-26 16:00 -4.39839 15.70392 3494 ft 216 kts 34°
2026-04-26 16:00 -4.38474 15.70956 3514 ft 210 kts
2026-04-26 16:00 -4.37025 15.71074 3516 ft 206 kts 357°
2026-04-26 16:00 -4.35795 15.70529 3499 ft 192 kts 314°
2026-04-26 16:01 -4.35055 15.69510 3499 ft 185 kts 307°
2026-04-26 16:01 -4.34253 15.68470 3492 ft 181 kts 313°
2026-04-26 16:01 -4.33423 15.67501 3522 ft 186 kts 313°
2026-04-26 16:01 -4.32554 15.66535 3515 ft 185 kts 315°
2026-04-26 16:02 -4.31692 15.65600 3502 ft 182 kts 316°
2026-04-26 16:02 -4.30828 15.64678 3487 ft 182 kts 316°
2026-04-26 16:02 -4.29959 15.63754 3492 ft 182 kts 316°
2026-04-26 16:02 -4.29371 15.63130 3497 ft 183 kts 316°
2026-04-26 16:03 -4.28402 15.61760 3488 ft 185 kts 289°
2026-04-26 16:03 -4.28392 15.60460 3501 ft 188 kts 256°
2026-04-26 16:03 -4.28935 15.59286 3494 ft 190 kts 237°
2026-04-26 16:03 -4.29691 15.58198 3502 ft 191 kts 237°
2026-04-26 16:04 -4.30439 15.57078 3494 ft 191 kts 237°
2026-04-26 16:04 -4.31155 15.55967 3368 ft 195 kts 238°
2026-04-26 16:04 -4.31871 15.54825 3109 ft 191 kts 239°
2026-04-26 16:04 -4.32565 15.53719 2883 ft 182 kts 238°
2026-04-26 16:05 -4.33218 15.52678 2638 ft 171 kts 239°
2026-04-26 16:05 -4.33829 15.51703 2417 ft 161 kts 239°
2026-04-26 16:05 -4.34483 15.50688 2346 ft 188 kts 238°
2026-04-26 16:05 -4.35205 15.49597 2150 ft 187 kts 235°
2026-04-26 16:06 -4.35948 15.48596 1859 ft 170 kts 237°
2026-04-26 16:06 -4.36559 15.47675 1675 ft 157 kts 237°
2026-04-26 16:06 -4.37160 15.46798 1448 ft 150 kts 238°
2026-04-26 16:06 -4.37715 15.45880 1174 ft 153 kts 241°
2026-04-26 16:07 -4.38254 15.44955 1042 ft 155 kts 238°
2026-04-26 16:07 -4.38785 15.44136 1009 ft 123 kts 237°
2026-04-26 16:07 -4.39117 15.43615 1009 ft 73 kts 237°
2026-04-26 16:07 -4.39269 15.43421 1009 ft 11 kts 263°
2026-04-26 16:08 -4.39236 15.43411 1008 ft 6 kts 53°
2026-04-26 16:08 -4.39220 15.43432 1008 ft 6 kts 53°
2026-04-26 16:08 -4.39190 15.43475 1008 ft 6 kts 54°
2026-04-26 16:08 -4.39167 15.43506 1008 ft 5 kts 54°
2026-04-26 16:09 -4.39145 15.43536 1008 ft 5 kts 54°
2026-04-26 16:09 -4.39124 15.43566 1008 ft 5 kts 54°
2026-04-26 16:09 -4.39098 15.43602 1008 ft 9 kts 54°
2026-04-26 16:09 -4.39058 15.43659 1008 ft 11 kts 58°
2026-04-26 16:10 -4.39019 15.43723 1007 ft 11 kts 58°
2026-04-26 16:10 -4.38981 15.43784 1007 ft 10 kts 58°
2026-04-26 16:10 -4.38945 15.43844 1008 ft 10 kts 58°
2026-04-26 16:10 -4.38910 15.43903 1008 ft 10 kts 60°
2026-04-26 16:11 -4.38876 15.43961 1008 ft 9 kts 59°
2026-04-26 16:11 -4.38844 15.44017 1008 ft 9 kts 59°
2026-04-26 16:11 -4.38838 15.44071 1008 ft 9 kts 141°
2026-04-26 16:11 -4.38887 15.44110 1008 ft 9 kts 142°
2026-04-26 16:12 -4.38934 15.44147 1009 ft 8 kts 142°
2026-04-26 16:12 -4.38981 15.44182 1009 ft 8 kts 143°
2026-04-26 16:12 -4.39079 15.44235 1009 ft 8 kts 154°
2026-04-26 16:13 -4.39127 15.44258 1009 ft 5 kts 155°